Location: The Saddle
(36.8333°N, 80.3417°W)
Time: 10:13:34
(UTC-05:00)

Courier 1B Rocket - All Passes

Search period start: 11 December 2023 00:00
Search period end: 21 December 2023 00:00
Orbit: 920 x 1201 km, 28.2° (Epoch: 10 December)

Date Brightness Start Highest point End Pass type
(mag) Time Alt. Az. Time Alt. Az. Time Alt. Az.
11 Dec - 08:29:21 10° SSW 08:34:39 21° SSE 08:39:43 10° ESE daylight
11 Dec - 10:21:02 10° SW 10:27:35 36° S 10:33:43 10° ESE daylight
11 Dec - 12:14:10 10° WSW 12:20:36 40° S 12:26:38 10° ESE daylight
11 Dec - 14:08:03 10° WSW 14:13:24 26° SSW 14:18:31 10° SE daylight
12 Dec - 07:29:20 10° S 07:33:37 16° SSE 07:37:47 10° ESE daylight
12 Dec - 09:20:02 10° SW 09:26:30 32° SSE 09:32:37 10° ESE daylight
12 Dec - 11:12:53 10° WSW 11:19:34 41° S 11:25:48 10° ESE daylight
12 Dec - 13:06:32 10° WSW 13:12:30 32° SSW 13:18:08 10° SE daylight
12 Dec - 15:01:41 10° WSW 15:05:03 15° SSW 15:08:20 10° S daylight
13 Dec - 06:30:37 10° SSE 06:32:36 11° SSE 06:34:34 10° SE visible
13 Dec - 08:19:14 10° SW 08:25:25 27° SSE 08:31:21 10° ESE daylight
13 Dec - 10:11:39 10° WSW 10:18:29 41° S 10:24:53 10° ESE daylight
13 Dec - 12:05:06 10° WSW 12:11:32 37° S 12:17:33 10° SE daylight
13 Dec - 13:59:28 10° WSW 14:04:14 20° SSW 14:08:49 10° SSE daylight
14 Dec - 07:18:43 10° SSW 07:24:21 22° SSE 07:29:49 10° ESE daylight
14 Dec - 09:10:30 10° SW 09:17:23 38° S 09:23:51 10° ESE daylight
14 Dec - 11:03:43 10° WSW 11:10:29 41° S 11:16:49 10° ESE daylight
14 Dec - 12:57:41 10° WSW 13:03:22 27° SSW 13:08:43 10° SE daylight
15 Dec - 06:18:40 10° S 06:23:18 17° SSE 06:27:51 10° ESE visible
15 Dec - 08:09:28 10° SW 08:16:14 34° SSE 08:22:42 10° ESE daylight
15 Dec - 10:02:23 10° WSW 10:09:23 43° S 10:15:57 10° ESE daylight
15 Dec - 11:56:06 10° WSW 12:02:25 33° SSW 12:08:20 10° SE daylight
15 Dec - 13:51:20 10° WSW 13:55:01 15° SSW 13:58:35 10° S daylight
16 Dec - 05:19:44 10° S 05:22:16 12° SSE 05:24:47 10° SE visible
16 Dec - 07:08:40 10° SW 07:15:06 29° SSE 07:21:21 10° ESE daylight
16 Dec - 09:01:07 10° WSW 09:08:14 42° S 09:14:58 10° ESE daylight
16 Dec - 10:54:36 10° WSW 11:01:22 39° S 11:07:43 10° SE daylight
16 Dec - 12:49:03 10° WSW 12:54:10 21° SSW 12:59:02 10° SSE daylight
17 Dec - 06:08:10 10° SSW 06:13:59 23° SSE 06:19:44 10° ESE visible
17 Dec - 07:59:57 10° SW 08:07:03 39° S 08:13:52 10° ESE daylight
17 Dec - 09:53:11 10° WSW 10:00:16 43° S 10:06:55 10° ESE daylight
17 Dec - 11:47:13 10° WSW 11:53:14 28° SSW 11:58:55 10° SE daylight
17 Dec - 13:45:02 10° SW 13:45:44 10° SSW 13:46:26 10° SSW daylight
18 Dec - 05:08:09 10° S 05:12:55 17° SSE 05:17:41 10° ESE visible
18 Dec - 06:58:57 10° SW 07:05:53 35° SSE 07:12:37 10° ESE visible
18 Dec - 08:51:51 10° WSW 08:59:05 44° S 09:06:00 10° ESE daylight
18 Dec - 10:45:35 10° WSW 10:52:12 34° SSW 10:58:28 10° SE daylight
18 Dec - 12:40:49 10° WSW 12:44:54 16° SSW 12:48:50 10° S daylight
19 Dec - 04:09:14 10° S 04:11:54 12° SSE 04:14:36 10° SE visible
19 Dec - 05:58:11 10° SW 06:04:43 29° SSE 06:11:10 10° ESE visible
19 Dec - 07:50:35 10° WSW 07:57:53 43° S 08:04:56 10° ESE daylight
19 Dec - 09:44:04 10° WSW 09:51:07 40° S 09:57:47 10° ESE daylight
19 Dec - 11:38:32 10° WSW 11:43:59 22° SSW 11:49:12 10° SSE daylight
20 Dec - 04:57:45 10° SSW 05:03:36 23° SSE 05:09:29 10° ESE visible
20 Dec - 06:49:28 10° WSW 06:56:39 40° S 07:03:43 10° ESE visible
20 Dec - 08:42:40 10° WSW 08:49:56 43° S 08:56:55 10° ESE daylight
20 Dec - 10:36:41 10° WSW 10:43:00 29° SSW 10:49:00 10° SE daylight
20 Dec - 12:33:51 10° SW 12:35:34 11° SSW 12:37:17 10° SSW daylight
